Regional Weather Roundup
Issued by NWS

Home | Current Version | Previous Version | Graphics & Text | Print | Product List | Glossary On
Versions: 1 2 3 4 5 6 7 8 9 10 11 12 13 14 15 16 17 18 19 20 21 22 23 24 25 26 27 28 29 30 31 32 33 34 35 36 37 38 39 40 41 42 43 44 45 46 47 48 49 50
000
ASUS43 KFSD 280502
RWRSD

WEATHER ROUNDUP FOR SOUTH DAKOTA
NATIONAL WEATHER SERVICE SIOUX FALLS SD
1200 AM CDT THU AUG 28 2014

NOTE: "FAIR" INDICATES FEW OR NO CLOUDS BELOW 12,000 FEET WITH NO
SIGNIFICANT WEATHER AND/OR OBSTRUCTIONS TO VISIBILITY.


SDZ001>005-009-010-012>017-280600-
NORTHWEST AND NORTH CENTRAL SOUTH DAKOTA

CITY           SKY/WX    TMP DP  RH WIND       PRES   REMARKS
BUFFALO          N/A     61  60  97 S6        29.99F
FAITH            N/A     64  64 100 NE7       30.03F
MOBRIDGE       CLOUDY    66  63  90 E8        30.00S
$$

SDZ012>016-024>037-041>051-057-063-072>074-280600-
SOUTHWEST AND SOUTH CENTRAL SOUTH DAKOTA

CITY           SKY/WX    TMP DP  RH WIND       PRES   REMARKS
RAPID CTY ARPT CLOUDY    64  62  93 NW7       30.04F
PIERRE         LGT RAIN  68  66  93 SE9       30.00F
CUSTER         CLOUDY    57  55  93 N3        30.15F
ELLSWORTH AFB  CLOUDY    64  64  99 N8        30.04F
PHILIP         LGT RAIN  66  64  93 CALM      30.00F
PINE RIDGE     CLOUDY    64  63  96 NE3       30.03F
WINNER         HVY RAIN  68  67  96 E10       30.02F FOG
$$

SDZ004>011-016>023-039-040-280600-
NORTHEAST SOUTH DAKOTA

CITY           SKY/WX    TMP DP  RH WIND       PRES   REMARKS
ABERDEEN       PTCLDY    61  61 100 SE6       30.03F
WATERTOWN      PTCLDY    64  62  93 SE6       30.07F
SISSETON         N/A     62  60  93 S3        30.06F
$$

SDZ017-020-022-023-036>040-048>070-280600-
SOUTHEAST SOUTH DAKOTA

CITY           SKY/WX    TMP DP  RH WIND       PRES   REMARKS
SIOUX FALLS    CLOUDY    69  65  86 SE12      30.07F
HURON          MOCLDY    68  64  87 SE6       30.03F
CHAMBERLAIN    LGT RAIN  67  66  99 SE7       30.02F
MITCHELL       CLOUDY    69  67  93 SE10      30.04F
YANKTON        CLOUDY    68  66  94 E8        30.05F
$$

ABBREVIATIONS USED IN REMARKS
   TC - TEMPERATURE IN CELSIUS
  WCI - WIND CHILL INDEX
   HX - HEAT INDEX
  VSB - VISIBILITY



USA.gov is the U.S. government's official web portal to all federal, state and local government web resources and services.